Actual water levels and discharges of Vltava river

Praha-Chuchle

Date and time (UTC) H (cm) Q (m3/s)
18. 2. 2019 12:00 65 127
18. 2. 2019 11:00 65 127
18. 2. 2019 10:00 64 123
18. 2. 2019 09:00 67 137
18. 2. 2019 08:00 69 146
18. 2. 2019 07:00 77 185
18. 2. 2019 06:00 79 195
18. 2. 2019 05:00 79 195
18. 2. 2019 04:00 79 195
18. 2. 2019 03:00 79 195
18. 2. 2019 02:00 79 195
18. 2. 2019 01:00 79 195
18. 2. 2019 00:00 79 195

H - vodni stav, Q - discharge
more information

VD Vrané nad Vltavou

Date and time (UTC) H (m n. m.) Q (m3/s)
18. 2. 2019 12:00 199 79
18. 2. 2019 11:00 199 76
18. 2. 2019 10:00 199 83
18. 2. 2019 09:00 199 82
18. 2. 2019 08:00 199 84
18. 2. 2019 07:00 199 111
18. 2. 2019 06:00 199 137
18. 2. 2019 05:00 199 145
18. 2. 2019 04:00 200 145
18. 2. 2019 03:00 200 144
18. 2. 2019 02:00 200 145
18. 2. 2019 01:00 200 145
18. 2. 2019 00:00 200 145

H - water level, Q - outflow

VD Štěchovice

Date and time (UTC) H (m n. m.) Q (m3/s)
18. 2. 2019 12:00 218 24
18. 2. 2019 11:00 217 24
18. 2. 2019 10:00 217 58
18. 2. 2019 09:00 217 74
18. 2. 2019 08:00 216 74
18. 2. 2019 07:00 216 74
18. 2. 2019 06:00 216 49
18. 2. 2019 05:00 216 24
18. 2. 2019 04:00 216 31
18. 2. 2019 03:00 216 49
18. 2. 2019 02:00 217 79
18. 2. 2019 01:00 217 79
18. 2. 2019 00:00 217 159

H - water level, Q - outflow

VD Slapy

Date and time (UTC) H (m n. m.) Q (m3/s)
18. 2. 2019 12:00 268 56
18. 2. 2019 11:00 268 72
18. 2. 2019 10:00 268 136
18. 2. 2019 09:00 268 181
18. 2. 2019 08:00 268 203
18. 2. 2019 07:00 268 58
18. 2. 2019 06:00 268 12
18. 2. 2019 05:00 268 0
18. 2. 2019 04:00 268 0
18. 2. 2019 03:00 268 0
18. 2. 2019 02:00 268 0
18. 2. 2019 01:00 268 0
18. 2. 2019 00:00 268 0

H - water level, Q - outflow

VD Kamýk

Date and time (UTC) H (m n. m.) Q (m3/s)
18. 2. 2019 12:00 283 -
18. 2. 2019 11:00 283 -
18. 2. 2019 10:00 284 -
18. 2. 2019 09:00 284 -
18. 2. 2019 08:00 283 -
18. 2. 2019 07:00 283 -
18. 2. 2019 06:00 283 -
18. 2. 2019 05:00 283 -
18. 2. 2019 04:00 283 -
18. 2. 2019 03:00 283 -
18. 2. 2019 02:00 283 -
18. 2. 2019 01:00 283 -
18. 2. 2019 00:00 283 -

H - water level, Q - outflow

VD Orlík

Date and time (UTC) H (m n. m.) Q (m3/s)
18. 2. 2019 12:00 343 0
18. 2. 2019 11:00 343 0
18. 2. 2019 10:00 343 0
18. 2. 2019 09:00 343 428
18. 2. 2019 08:00 343 606
18. 2. 2019 07:00 343 0
18. 2. 2019 06:00 343 0
18. 2. 2019 05:00 343 0
18. 2. 2019 04:00 343 0
18. 2. 2019 03:00 343 0
18. 2. 2019 02:00 343 0
18. 2. 2019 01:00 343 0
18. 2. 2019 00:00 343 0

H - water level, Q - outflow

VD Kořensko

Date and time (UTC) H (m n. m.) Q (m3/s)
18. 2. 2019 12:00 353 54
18. 2. 2019 11:00 353 53
18. 2. 2019 10:00 353 51
18. 2. 2019 09:00 353 48
18. 2. 2019 08:00 353 69
18. 2. 2019 07:00 353 35
18. 2. 2019 06:00 353 35
18. 2. 2019 05:00 353 35
18. 2. 2019 04:00 353 35
18. 2. 2019 03:00 353 35
18. 2. 2019 02:00 353 35
18. 2. 2019 01:00 353 35
18. 2. 2019 00:00 353 35

H - water level, Q - outflow

VD Hněvkovice I - přehrada

Date and time (UTC) H (m n. m.) Q (m3/s)
- - -

H - water level, Q - outflow

České Budějovice

Date and time (UTC) H (cm) Q (m3/s)
18. 2. 2019 12:00 106 24
18. 2. 2019 11:00 106 24
18. 2. 2019 10:00 106 24
18. 2. 2019 09:00 105 24
18. 2. 2019 08:00 107 26
18. 2. 2019 07:00 106 25
18. 2. 2019 06:00 107 26
18. 2. 2019 05:00 106 25
18. 2. 2019 04:00 106 25
18. 2. 2019 03:00 106 25
18. 2. 2019 02:00 106 25
18. 2. 2019 01:00 106 24
18. 2. 2019 00:00 106 24

H - vodni stav, Q - discharge
more information
Source data
Labe Basin Vltava Basin ČHMÚ